TimeCST,TemperatureF,Dew PointF,Humidity,Sea Level PressureIn,VisibilityMPH,Wind Direction,Wind SpeedMPH,Gust SpeedMPH,PrecipitationIn,Events,Conditions,WindDirDegrees,DateUTC
12:53 AM,21.9,19.0,89,29.67,10.0,Variable,4.6,-,N/A,,Clear,0,2013-02-13 06:53:00
1:53 AM,23.0,19.9,88,29.67,10.0,Variable,3.5,-,N/A,,Clear,0,2013-02-13 07:53:00
2:53 AM,21.9,19.0,89,29.68,10.0,Calm,Calm,-,N/A,,Clear,0,2013-02-13 08:53:00
3:53 AM,19.9,18.0,92,29.67,10.0,Calm,Calm,-,N/A,,Clear,0,2013-02-13 09:53:00
4:53 AM,16.0,14.0,92,29.67,6.0,Calm,Calm,-,N/A,,Clear,0,2013-02-13 10:53:00
5:06 AM,15.8,15.8,100,29.60,1.8,Calm,Calm,-,N/A,,Clear,0,2013-02-13 11:06:00
5:08 AM,15.8,15.8,100,29.60,1.0,Calm,Calm,-,N/A,,Clear,0,2013-02-13 11:08:00
5:15 AM,14.0,12.2,93,29.61,0.2,Calm,Calm,-,N/A,Fog,Light Freezing Fog,0,2013-02-13 11:15:00
5:34 AM,15.8,12.2,86,29.61,1.5,Calm,Calm,-,N/A,,Clear,0,2013-02-13 11:34:00
5:39 AM,15.8,12.2,86,29.60,4.0,Calm,Calm,-,N/A,,Clear,0,2013-02-13 11:39:00
5:49 AM,14.0,12.2,93,29.60,1.2,Calm,Calm,-,N/A,,Clear,0,2013-02-13 11:49:00
5:51 AM,14.0,12.2,93,29.60,0.8,Calm,Calm,-,N/A,,Mist,0,2013-02-13 11:51:00
5:53 AM,14.0,10.4,86,29.60,0.5,Calm,Calm,-,N/A,Fog,Light Freezing Fog,0,2013-02-13 11:53:00
6:53 AM,7.0,5.0,92,29.67,0.2,Calm,Calm,-,N/A,Fog,Light Freezing Fog,0,2013-02-13 12:53:00
7:53 AM,6.1,5.0,95,29.68,0.2,Calm,Calm,-,N/A,Fog,Light Freezing Fog,0,2013-02-13 13:53:00
8:53 AM,9.0,8.1,96,29.68,0.2,Calm,Calm,-,N/A,Fog,Light Freezing Fog,0,2013-02-13 14:53:00
8:58 AM,8.6,8.6,100,29.61,1.2,Calm,Calm,-,N/A,,Overcast,0,2013-02-13 14:58:00
9:05 AM,10.4,10.4,100,29.61,1.0,Calm,Calm,-,N/A,,Overcast,0,2013-02-13 15:05:00
9:09 AM,10.4,10.4,100,29.61,2.0,Calm,Calm,-,N/A,,Overcast,0,2013-02-13 15:09:00
9:17 AM,10.4,10.4,100,29.61,4.0,Calm,Calm,-,N/A,,Overcast,0,2013-02-13 15:17:00
9:32 AM,12.2,10.4,92,29.61,4.0,Calm,Calm,-,N/A,,Overcast,0,2013-02-13 15:32:00
9:53 AM,14.0,12.9,95,29.68,5.0,Calm,Calm,-,N/A,,Overcast,0,2013-02-13 15:53:00
10:08 AM,15.8,15.8,100,29.61,1.8,Calm,Calm,-,N/A,,Overcast,0,2013-02-13 16:08:00
10:10 AM,15.8,15.8,100,29.61,1.0,Calm,Calm,-,N/A,,Overcast,0,2013-02-13 16:10:00
10:17 AM,17.6,17.6,100,29.62,0.8,Calm,Calm,-,N/A,,Overcast,0,2013-02-13 16:17:00
10:27 AM,17.6,17.6,100,29.62,1.0,Calm,Calm,-,N/A,,Overcast,0,2013-02-13 16:27:00
10:40 AM,19.4,19.4,100,29.62,1.2,Calm,Calm,-,N/A,,Overcast,0,2013-02-13 16:40:00
10:43 AM,19.4,17.6,93,29.62,2.0,Calm,Calm,-,N/A,,Overcast,0,2013-02-13 16:43:00
10:51 AM,19.4,19.4,100,29.62,3.0,Calm,Calm,-,N/A,,Overcast,0,2013-02-13 16:51:00
10:53 AM,19.9,19.9,100,29.68,3.0,Calm,Calm,-,N/A,,Overcast,0,2013-02-13 16:53:00
11:53 AM,24.1,21.9,91,29.67,8.0,Calm,Calm,-,N/A,,Overcast,0,2013-02-13 17:53:00
12:53 PM,26.1,21.9,84,29.64,10.0,ESE,3.5,-,N/A,,Overcast,110,2013-02-13 18:53:00
1:53 PM,30.9,23.0,72,29.64,10.0,Calm,Calm,-,N/A,,Overcast,0,2013-02-13 19:53:00
2:53 PM,30.9,23.0,72,29.63,10.0,Calm,Calm,-,N/A,,Scattered Clouds,0,2013-02-13 20:53:00
3:53 PM,30.9,23.0,72,29.65,10.0,Calm,Calm,-,N/A,,Overcast,0,2013-02-13 21:53:00
4:12 PM,30.2,24.8,80,29.60,10.0,NNW,3.5,-,N/A,,Overcast,330,2013-02-13 22:12:00
4:26 PM,30.2,24.8,80,29.60,10.0,NNW,3.5,-,N/A,,Overcast,330,2013-02-13 22:26:00
4:53 PM,30.0,24.1,79,29.66,10.0,NNW,5.8,-,N/A,,Overcast,340,2013-02-13 22:53:00
5:53 PM,27.0,21.9,81,29.68,10.0,NW,3.5,-,N/A,,Overcast,320,2013-02-13 23:53:00
6:53 PM,28.0,21.9,78,29.70,10.0,Calm,Calm,-,N/A,,Overcast,0,2013-02-14 00:53:00
7:53 PM,26.1,21.0,81,29.71,10.0,NW,3.5,-,N/A,,Mostly Cloudy,310,2013-02-14 01:53:00
8:53 PM,19.9,14.0,78,29.73,10.0,NNW,10.4,-,N/A,,Clear,330,2013-02-14 02:53:00
9:53 PM,19.9,12.9,74,29.75,10.0,NNW,11.5,-,N/A,,Clear,330,2013-02-14 03:53:00
10:53 PM,18.0,12.9,81,29.75,10.0,NNW,11.5,-,N/A,,Clear,330,2013-02-14 04:53:00
11:53 PM,16.0,10.9,81,29.78,10.0,NNW,9.2,-,N/A,,Clear,340,2013-02-14 05:53:00